This is the latest recevied weather packets stored in our database for station/object W1HVD. If no packets are shown the sender has not sent any weather packets the latest 10 day(s).
| Time | Temp. | Humidity | Pressure | Rain* | Wind** | Luminosity | Snow |
|---|---|---|---|---|---|---|---|
| 1778180022 | 18.89° C | 36% | 1005.6 hPa | 0 mm | - | 622 W/m² | - |
| 1778179719 | 18.33° C | 36% | 1005.5 hPa | 0 mm | - | 629 W/m² | - |
| 1778179417 | 18.89° C | 32% | 1005.9 hPa | 0 mm | - | 640 W/m² | - |
| 1778179113 | 18.33° C | 35% | 1005.8 hPa | 0 mm | - | 649 W/m² | - |
| 1778178810 | 18.33° C | 32% | 1005.9 hPa | 0 mm | - | 659 W/m² | - |
| 1778178508 | 18.33° C | 33% | 1005.9 hPa | 0 mm | - | 665 W/m² | - |
| 1778178204 | 18.33° C | 35% | 1006.1 hPa | 0 mm | - | 675 W/m² | - |
| 1778177900 | 17.78° C | 36% | 1006.1 hPa | 0 mm | - | 683 W/m² | - |
| 1778177596 | 18.89° C | 34% | 1006 hPa | 0 mm | - | 691 W/m² | - |
| 1778177293 | 18.33° C | 35% | 1006.1 hPa | 0 mm | - | 696 W/m² | - |
| 1778176990 | 17.78° C | 38% | 1005.9 hPa | 0 mm | - | 701 W/m² | - |
| 1778176685 | 18.33° C | 37% | 1006.1 hPa | 0 mm | - | 712 W/m² | - |
| 1778176382 | 18.33° C | 48% | 1006.2 hPa | 0 mm | - | 715 W/m² | - |
| 1778176079 | 17.78° C | 39% | 1005.9 hPa | 0 mm | - | 725 W/m² | - |
| 1778175777 | 17.78° C | 47% | 1006 hPa | 0 mm | - | 733 W/m² | - |
| 1778175475 | 17.78° C | 44% | 1006.3 hPa | 0 mm | - | 749 W/m² | - |
| 1778175172 | 17.78° C | 46% | 1006.3 hPa | 0 mm | - | 798 W/m² | - |
| 1778174868 | 16.67° C | 54% | 1006.2 hPa | 0 mm | - | 850 W/m² | - |
| 1778174565 | 17.22° C | 52% | 1006.1 hPa | 0 mm | - | 567 W/m² | - |
| 1778174260 | 16.67° C | 54% | 1006.2 hPa | 0 mm | - | 247 W/m² | - |
| 1778173958 | 16.11° C | 53% | 1006.3 hPa | 0 mm | - | 284 W/m² | - |
| 1778173655 | 16.11° C | 57% | 1006.5 hPa | 0 mm | - | 234 W/m² | - |
| 1778173352 | 16.11° C | 55% | 1006.5 hPa | 0 mm | - | 268 W/m² | - |
| 1778173047 | 16.11° C | 52% | 1006.7 hPa | 0 mm | - | 204 W/m² | - |
| 1778172744 | 16.67° C | 52% | 1006.7 hPa | 0 mm | - | 246 W/m² | - |
* Rain latest hour (hover to see other rain measurements)
** Current wind speed in m/s (hover to see current wind gust speed)